Weather History for Hereford, TX

Change the Weather History Date:

Tuesday, February 26, 2013

  Actual Average (KAMA) Record (KAMA)
Temperature  
Mean Temperature 25 °F 43 °F  
Max Temperature 42 °F 57 °F 80 °F (1981)
Min Temperature 8 °F 29 °F 5 °F (1934)
Degree Days  
Heating Degree Days 40 22  
Month to date heating degree days 648  
Since 1 July heating degree days 3233  
Cooling Degree Days 0 0  
Month to date cooling degree days 0  
Year to date cooling degree days 0  
Moisture  
Dew Point 19 °F    
Average Humidity 78    
Maximum Humidity 92    
Minimum Humidity 49    
Precipitation  
Precipitation 0.00 in 0.02 in 0.97 in (1895)
Month to date precipitation 0.52  
Year to date precipitation 1.24  
Snow  
Snow 0.00 in 0.10 in 3.50 in (1984)
Month to date snowfall 2.8  
Since 1 July snowfall 13.9  
Snow Depth -    
Sea Level Pressure  
Sea Level Pressure 29.83 in    
Wind  
Wind Speed - (North)    
Max Wind Speed -    
Max Gust Speed -    
Visibility 10 miles    
Events Snow    
T = Trace of Precipitation, MM = Missing Value Source: NWS Daily Summary

Daily Weather History Graph

Daily Weather History Graph

Search for Another Location

Airport:

Trip Planner

Search our weather history database for the weather conditions in past years. The results will help you decide how hot, cold, wet, or windy it might be!

Date:

Astronomy

Feb. 26, 2013 Rise Set
Actual Time 7:22 AM CST 6:42 PM CST
Civil Twilight 6:56 AM CST 7:08 PM CST
Nautical Twilight 6:27 AM CST 7:37 PM CST
Astronomical Twilight 5:58 AM CST 8:06 PM CST
Moon 7:56 PM CST (2/26) 7:29 AM CST (2/26)
Length of Visible Light 12h 11m
Length of Day
11h 20m
Full, 99% of the Moon is Illuminated
Feb 26
Full
Mar 4
Last Quarter
Mar 11
New
Mar 19
First Quarter
Mar 27
Full

Hourly Weather History & Observations

Time (CST) Temp. Dew Point Humidity Pressure Visibility Wind Dir Wind Speed Gust Speed Precip Events Conditions
12:15 AM 19.4 °F 14.0 °F 80% 29.89 in 10.0 mi North - - N/A   Clear
12:35 AM 17.6 °F 14.0 °F 86% 29.89 in 10.0 mi North - - N/A   Clear
12:55 AM 15.8 °F 12.2 °F 86% 29.90 in 10.0 mi North - - N/A   Clear
1:15 AM 19.4 °F 14.0 °F 80% 29.89 in 10.0 mi North - - N/A   Clear
1:35 AM 17.6 °F 12.2 °F 79% 29.89 in 10.0 mi North - - N/A   Clear
1:55 AM 17.6 °F 12.2 °F 79% 29.89 in 10.0 mi North - - N/A   Clear
2:15 AM 17.6 °F 12.2 °F 79% 29.88 in 10.0 mi North - - N/A   Clear
2:35 AM 15.8 °F 12.2 °F 86% 29.87 in 10.0 mi North - - N/A   Clear
2:55 AM 14.0 °F 10.4 °F 86% 29.86 in 10.0 mi North - - N/A   Clear
3:15 AM 12.2 °F 10.4 °F 92% 29.86 in 10.0 mi North - - N/A   Clear
3:35 AM 12.2 °F 10.4 °F 92% 29.86 in 10.0 mi North - - N/A   Clear
3:55 AM 12.2 °F 10.4 °F 92% 29.85 in 10.0 mi North - - N/A   Clear
4:15 AM 10.4 °F 8.6 °F 92% 29.84 in 10.0 mi North - - N/A   Clear
4:35 AM 10.4 °F 8.6 °F 92% 29.84 in 10.0 mi North - - N/A   Clear
4:55 AM 10.4 °F 6.8 °F 85% 29.85 in 10.0 mi North - - N/A   Clear
5:15 AM 10.4 °F 8.6 °F 92% 29.84 in 10.0 mi North - - N/A   Clear
5:35 AM 8.6 °F 5.0 °F 85% 29.85 in 10.0 mi North - - N/A   Clear
5:55 AM 10.4 °F 6.8 °F 85% 29.85 in 10.0 mi North - - N/A   Clear
6:15 AM 12.2 °F 8.6 °F 85% 29.86 in 10.0 mi North - - N/A   Clear
6:35 AM 12.2 °F 10.4 °F 92% 29.85 in 10.0 mi North - - N/A   Clear
6:55 AM 10.4 °F 6.8 °F 85% 29.85 in 10.0 mi North - - N/A   Clear
7:15 AM 8.6 °F 5.0 °F 85% 29.85 in 10.0 mi North - - N/A   Clear
7:35 AM 8.6 °F 3.2 °F 79% 29.85 in 10.0 mi North - - N/A   Clear
7:55 AM 8.6 °F 5.0 °F 85% 29.85 in 7.0 mi North - - N/A Snow Light Snow
8:15 AM 10.4 °F 6.8 °F 85% 29.85 in 10.0 mi North - - N/A   Clear
8:35 AM 10.4 °F 6.8 °F 85% 29.86 in 10.0 mi North - - N/A   Clear
8:55 AM 14.0 °F 10.4 °F 86% 29.86 in 10.0 mi North - - N/A   Scattered Clouds
9:15 AM 15.8 °F 12.2 °F 86% 29.86 in 10.0 mi North - - N/A   Scattered Clouds
9:35 AM 19.4 °F 14.0 °F 80% 29.85 in 10.0 mi North - - N/A   Clear
9:55 AM 21.2 °F 15.8 °F 80% 29.85 in 10.0 mi North - - N/A   Clear
10:15 AM 23.0 °F 19.4 °F 86% 29.85 in 10.0 mi North - - N/A   Clear
10:35 AM 26.6 °F 21.2 °F 80% 29.85 in 10.0 mi North - - N/A   Clear
10:55 AM 28.4 °F 23.0 °F 80% 29.85 in 10.0 mi North - - N/A   Clear
11:15 AM 30.2 °F 23.0 °F 75% 29.85 in 10.0 mi North - - N/A   Clear
11:35 AM 32.0 °F 23.0 °F 69% 29.85 in 10.0 mi North - - N/A   Clear
11:55 AM 32.0 °F 23.0 °F 69% 29.84 in 10.0 mi North - - N/A   Clear
12:15 PM 32.0 °F 23.0 °F 69% 29.83 in 10.0 mi North - - N/A   Clear
12:35 PM 32.0 °F 24.8 °F 75% 29.82 in 10.0 mi North - - N/A   Clear
12:55 PM 32.0 °F 24.8 °F 75% 29.81 in 10.0 mi North - - N/A   Clear
1:15 PM 33.8 °F 24.8 °F 70% 29.80 in 10.0 mi North - - N/A   Clear
1:35 PM 33.8 °F 24.8 °F 70% 29.79 in 10.0 mi North - - N/A   Clear
1:55 PM 33.8 °F 24.8 °F 70% 29.78 in 10.0 mi North - - N/A   Clear
2:15 PM 35.6 °F 26.6 °F 70% 29.76 in 10.0 mi North - - N/A   Clear
2:35 PM 35.6 °F 26.6 °F 70% 29.76 in 10.0 mi North - - N/A   Clear
2:55 PM 35.6 °F 26.6 °F 70% 29.76 in 10.0 mi North - - N/A   Clear
3:15 PM 35.6 °F 28.4 °F 75% 29.75 in 10.0 mi North - - N/A   Clear
3:35 PM 37.4 °F 28.4 °F 70% 29.75 in 10.0 mi North - - N/A   Clear
3:55 PM 37.4 °F 28.4 °F 70% 29.75 in 10.0 mi North - - N/A   Clear
4:15 PM 37.4 °F 30.2 °F 75% 29.74 in 10.0 mi North - - N/A   Clear
4:35 PM 39.2 °F 30.2 °F 70% 29.75 in 10.0 mi North - - N/A   Clear
4:55 PM 41.0 °F 30.2 °F 65% 29.74 in 10.0 mi North - - N/A   Clear
5:15 PM 41.0 °F 32.0 °F 70% 29.72 in 10.0 mi North - - N/A   Clear
5:35 PM 42.8 °F 26.6 °F 53% 29.73 in 10.0 mi North - - N/A   Scattered Clouds
5:55 PM 41.0 °F 30.2 °F 65% 29.72 in 10.0 mi North - - N/A   Scattered Clouds
6:15 PM 39.2 °F 30.2 °F 70% 29.72 in 10.0 mi North - - N/A   Scattered Clouds
6:35 PM 41.0 °F 28.4 °F 61% 29.74 in 10.0 mi North - - N/A   Scattered Clouds
6:55 PM 37.4 °F 30.2 °F 75% 29.73 in 10.0 mi North - - N/A   Scattered Clouds
7:15 PM 37.4 °F 28.4 °F 70% 29.74 in 10.0 mi North - - N/A   Mostly Cloudy
7:35 PM 41.0 °F 23.0 °F 49% 29.76 in 10.0 mi North - - N/A   Overcast
7:55 PM 33.8 °F 28.4 °F 81% 29.78 in 10.0 mi North - - N/A   Overcast
8:15 PM 32.0 °F 24.8 °F 75% 29.82 in 10.0 mi North - - N/A   Scattered Clouds
8:35 PM 32.0 °F 26.6 °F 80% 29.85 in 10.0 mi North - - N/A   Mostly Cloudy
8:55 PM 32.0 °F 24.8 °F 75% 29.86 in 10.0 mi North - - N/A   Mostly Cloudy
9:15 PM 32.0 °F 24.8 °F 75% 29.88 in 10.0 mi North - - N/A   Scattered Clouds
9:35 PM 32.0 °F 24.8 °F 75% 29.90 in 10.0 mi North - - N/A   Scattered Clouds
9:55 PM 30.2 °F 24.8 °F 80% 29.91 in 10.0 mi North - - N/A   Clear
10:15 PM 30.2 °F 26.6 °F 86% 29.92 in 10.0 mi North - - N/A   Clear
10:35 PM 28.4 °F 23.0 °F 80% 29.94 in 10.0 mi North - - N/A   Clear
10:55 PM 28.4 °F 23.0 °F 80% 29.96 in 10.0 mi North - - N/A   Clear
11:15 PM 28.4 °F 23.0 °F 80% 29.96 in 10.0 mi North - - N/A   Scattered Clouds
11:35 PM 28.4 °F 23.0 °F 80% 29.97 in 10.0 mi North - - N/A   Clear
11:55 PM 26.6 °F 21.2 °F 80% 29.98 in 10.0 mi North - - N/A   Clear